Time,TemperatureF,DewpointF,PressureIn,WindDirection,WindDirectionDegrees,WindSpeedMPH,WindSpeedGustMPH,Humidity,HourlyPrecipIn,Conditions,Clouds,dailyrainin,SoftwareType,DateUTC
2013-04-17 00:03:00,75.0,-99.9,30.12,North,-999,-999.0,-999.0,-999,-99.99,,,-99.99,,2013-04-17 10:03:00,
2013-04-17 00:12:00,75.0,-99.9,30.11,NE,52,2.0,2.0,-999,-99.99,,,-99.99,,2013-04-17 10:12:00,
2013-04-17 00:23:00,75.0,-99.9,30.11,ESE,118,1.0,3.0,-999,-99.99,,,-99.99,,2013-04-17 10:23:00,
2013-04-17 00:33:00,75.0,-99.9,30.11,ENE,71,1.0,2.0,-999,-99.99,,,-99.99,,2013-04-17 10:33:00,
2013-04-17 00:43:00,75.0,-99.9,30.11,ENE,70,3.0,4.0,-999,-99.99,,,-99.99,,2013-04-17 10:43:00,
2013-04-17 00:53:00,75.0,-99.9,30.11,NNE,20,1.0,3.0,-999,-99.99,,,-99.99,,2013-04-17 10:53:00,
2013-04-17 01:02:00,75.0,-99.9,30.10,ESE,121,0.0,1.0,-999,-99.99,,,-99.99,,2013-04-17 11:02:00,
2013-04-17 01:12:00,75.0,-99.9,30.10,NW,326,1.0,3.0,-999,-99.99,,,-99.99,,2013-04-17 11:12:00,
2013-04-17 01:22:00,75.0,-99.9,30.10,NNW,334,2.0,3.0,-999,-99.99,,,-99.99,,2013-04-17 11:22:00,
2013-04-17 01:32:00,75.0,-99.9,30.09,NNE,13,1.0,2.0,-999,-99.99,,,-99.99,,2013-04-17 11:32:00,
2013-04-17 01:42:00,75.0,-99.9,30.09,North,356,-999.0,1.0,-999,-99.99,,,-99.99,,2013-04-17 11:42:00,
2013-04-17 01:52:00,74.0,-99.9,30.09,ENE,63,1.0,3.0,-999,-99.99,,,-99.99,,2013-04-17 11:52:00,
2013-04-17 02:03:00,74.0,-99.9,30.09,ESE,106,-999.0,1.0,-999,-99.99,,,-99.99,,2013-04-17 12:03:00,
2013-04-17 02:12:00,74.0,-99.9,30.09,SE,138,-999.0,1.0,-999,-99.99,,,-99.99,,2013-04-17 12:12:00,
2013-04-17 02:22:00,74.0,-99.9,30.09,ENE,69,-999.0,2.0,-999,-99.99,,,-99.99,,2013-04-17 12:22:00,
2013-04-17 02:32:00,74.0,-99.9,30.09,NE,36,2.0,3.0,-999,-99.99,,,-99.99,,2013-04-17 12:32:00,
2013-04-17 02:42:00,74.0,-99.9,30.09,NE,54,1.0,2.0,-999,-99.99,,,-99.99,,2013-04-17 12:42:00,
2013-04-17 02:52:00,74.0,-99.9,30.08,ENE,57,1.0,2.0,-999,-99.99,,,-99.99,,2013-04-17 12:52:00,
2013-04-17 03:02:00,74.0,-99.9,30.08,ENE,67,2.0,3.0,-999,-99.99,,,-99.99,,2013-04-17 13:02:00,
2013-04-17 03:12:00,73.0,-99.9,30.08,ENE,73,2.0,2.0,-999,-99.99,,,-99.99,,2013-04-17 13:12:00,
2013-04-17 03:22:00,74.0,-99.9,30.08,NNW,348,3.0,3.0,-999,-99.99,,,-99.99,,2013-04-17 13:22:00,
2013-04-17 03:32:00,74.0,-99.9,30.08,North,355,-999.0,4.0,-999,-99.99,,,-99.99,,2013-04-17 13:32:00,
2013-04-17 03:42:00,74.0,-99.9,30.08,East,93,1.0,3.0,-999,-99.99,,,-99.99,,2013-04-17 13:42:00,
2013-04-17 03:52:00,73.0,-99.9,30.07,ENE,71,-999.0,2.0,-999,-99.99,,,-99.99,,2013-04-17 13:52:00,
2013-04-17 04:02:00,73.0,-99.9,30.07,ENE,69,1.0,2.0,-999,-99.99,,,-99.99,,2013-04-17 14:02:00,
2013-04-17 04:12:00,73.0,-99.9,30.06,ENE,76,0.0,2.0,-999,-99.99,,,-99.99,,2013-04-17 14:12:00,
2013-04-17 04:22:00,73.0,-99.9,30.06,ENE,76,0.0,2.0,-999,-99.99,,,-99.99,,2013-04-17 14:22:00,
2013-04-17 04:32:00,73.0,-99.9,30.06,East,93,-999.0,2.0,-999,-99.99,,,-99.99,,2013-04-17 14:32:00,
2013-04-17 04:43:00,73.0,-99.9,30.06,ESE,121,-999.0,2.0,-999,-99.99,,,-99.99,,2013-04-17 14:43:00,
2013-04-17 04:52:00,73.0,-99.9,30.07,ENE,65,-999.0,1.0,-999,-99.99,,,-99.99,,2013-04-17 14:52:00,
2013-04-17 05:02:00,73.0,-99.9,30.07,SW,230,-999.0,2.0,-999,-99.99,,,-99.99,,2013-04-17 15:02:00,
2013-04-17 05:12:00,73.0,-99.9,30.07,NW,312,1.0,1.0,-999,-99.99,,,-99.99,,2013-04-17 15:12:00,
2013-04-17 05:22:00,73.0,-99.9,30.08,SSE,157,0.0,1.0,-999,-99.99,,,-99.99,,2013-04-17 15:22:00,
2013-04-17 05:33:00,73.0,-99.9,30.08,NW,324,-999.0,1.0,-999,-99.99,,,-99.99,,2013-04-17 15:33:00,
2013-04-17 05:43:00,73.0,-99.9,30.08,NNE,22,0.0,1.0,-999,-99.99,,,-99.99,,2013-04-17 15:43:00,
2013-04-17 05:53:00,72.0,-99.9,30.08,SSE,161,1.0,2.0,-999,-99.99,,,-99.99,,2013-04-17 15:53:00,
2013-04-17 06:03:00,73.0,-99.9,30.08,NW,318,1.0,1.0,-999,-99.99,,,-99.99,,2013-04-17 16:03:00,
2013-04-17 06:13:00,73.0,-99.9,30.08,WNW,293,1.0,1.0,-999,-99.99,,,-99.99,,2013-04-17 16:13:00,
2013-04-17 06:23:00,73.0,-99.9,30.09,NNE,24,1.0,3.0,-999,-99.99,,,-99.99,,2013-04-17 16:23:00,
2013-04-17 06:32:00,72.0,-99.9,30.09,North,-999,-999.0,-999.0,-999,-99.99,,,-99.99,,2013-04-17 16:32:00,
2013-04-17 06:42:00,73.0,-99.9,30.09,ESE,113,-999.0,2.0,-999,-99.99,,,-99.99,,2013-04-17 16:42:00,
2013-04-17 06:52:00,73.0,-99.9,30.09,North,351,-999.0,2.0,-999,-99.99,,,-99.99,,2013-04-17 16:52:00,
2013-04-17 07:02:00,73.0,-99.9,30.09,East,86,-999.0,1.0,-999,-99.99,,,-99.99,,2013-04-17 17:02:00,
2013-04-17 07:13:00,74.0,-99.9,30.10,North,-999,-999.0,-999.0,-999,-99.99,,,-99.99,,2013-04-17 17:13:00,
2013-04-17 07:22:00,74.0,-99.9,30.10,East,92,2.0,6.0,-999,-99.99,,,-99.99,,2013-04-17 17:22:00,
2013-04-17 07:33:00,75.0,-99.9,30.10,NE,56,2.0,4.0,-999,-99.99,,,-99.99,,2013-04-17 17:33:00,
2013-04-17 07:42:00,76.0,-99.9,30.11,NE,47,4.0,6.0,-999,-99.99,,,-99.99,,2013-04-17 17:42:00,
2013-04-17 07:52:00,76.0,-99.9,30.11,NE,54,5.0,9.0,-999,-99.99,,,-99.99,,2013-04-17 17:52:00,
2013-04-17 08:02:00,76.0,-99.9,30.11,NE,50,5.0,9.0,-999,-99.99,,,-99.99,,2013-04-17 18:02:00,
2013-04-17 08:12:00,76.0,-99.9,30.11,East,86,2.0,7.0,-999,-99.99,,,-99.99,,2013-04-17 18:12:00,
2013-04-17 08:22:00,77.0,-99.9,30.12,ENE,77,5.0,12.0,-999,-99.99,,,-99.99,,2013-04-17 18:22:00,
2013-04-17 08:33:00,77.0,-99.9,30.12,ENE,73,4.0,11.0,-999,-99.99,,,-99.99,,2013-04-17 18:33:00,
2013-04-17 08:42:00,77.0,-99.9,30.13,ENE,72,3.0,9.0,-999,-99.99,,,-99.99,,2013-04-17 18:42:00,
2013-04-17 08:52:00,78.0,-99.9,30.13,ENE,74,3.0,7.0,-999,-99.99,,,-99.99,,2013-04-17 18:52:00,
2013-04-17 09:03:00,78.0,-99.9,30.14,NE,52,8.0,11.0,-999,-99.99,,,-99.99,,2013-04-17 19:03:00,
2013-04-17 09:12:00,78.0,-99.9,30.14,ENE,72,5.0,13.0,-999,-99.99,,,-99.99,,2013-04-17 19:12:00,
2013-04-17 09:22:00,78.0,-99.9,30.14,NE,49,5.0,10.0,-999,-99.99,,,-99.99,,2013-04-17 19:22:00,
2013-04-17 09:32:00,79.0,-99.9,30.14,ENE,78,6.0,17.0,-999,-99.99,,,-99.99,,2013-04-17 19:32:00,
2013-04-17 09:42:00,79.0,-99.9,30.14,NE,49,8.0,12.0,-999,-99.99,,,-99.99,,2013-04-17 19:42:00,
2013-04-17 09:52:00,80.0,-99.9,30.14,East,86,4.0,9.0,-999,-99.99,,,-99.99,,2013-04-17 19:52:00,
2013-04-17 10:03:00,79.0,-99.9,30.14,ENE,66,6.0,11.0,-999,-99.99,,,-99.99,,2013-04-17 20:03:00,
2013-04-17 10:12:00,79.0,-99.9,30.14,ESE,105,6.0,9.0,-999,-99.99,,,-99.99,,2013-04-17 20:12:00,
2013-04-17 10:22:00,79.0,-99.9,30.14,NE,45,6.0,9.0,-999,-99.99,,,-99.99,,2013-04-17 20:22:00,
2013-04-17 10:33:00,80.0,-99.9,30.14,ENE,62,7.0,15.0,-999,-99.99,,,-99.99,,2013-04-17 20:33:00,
2013-04-17 10:42:00,79.0,-99.9,30.14,ESE,110,7.0,13.0,-999,-99.99,,,-99.99,,2013-04-17 20:42:00,
2013-04-17 10:53:00,81.0,-99.9,30.14,ESE,120,3.0,9.0,-999,-99.99,,,-99.99,,2013-04-17 20:53:00,
2013-04-17 11:03:00,81.0,-99.9,30.14,East,94,5.0,12.0,-999,-99.99,,,-99.99,,2013-04-17 21:03:00,
2013-04-17 11:13:00,80.0,-99.9,30.14,NE,42,6.0,12.0,-999,-99.99,,,-99.99,,2013-04-17 21:13:00,
2013-04-17 11:22:00,81.0,-99.9,30.14,NE,38,6.0,11.0,-999,-99.99,,,-99.99,,2013-04-17 21:22:00,
2013-04-17 11:33:00,81.0,-99.9,30.14,NE,55,6.0,13.0,-999,-99.99,,,-99.99,,2013-04-17 21:33:00,
2013-04-17 11:43:00,81.0,-99.9,30.14,NE,51,10.0,15.0,-999,-99.99,,,-99.99,,2013-04-17 21:43:00,
2013-04-17 11:53:00,81.0,-99.9,30.14,NE,48,5.0,16.0,-999,-99.99,,,-99.99,,2013-04-17 21:53:00,
2013-04-17 12:02:00,80.0,-99.9,30.14,East,99,6.0,14.0,-999,-99.99,,,-99.99,,2013-04-17 22:02:00,
2013-04-17 12:13:00,80.0,-99.9,30.14,ESE,112,6.0,16.0,-999,-99.99,,,-99.99,,2013-04-17 22:13:00,
2013-04-17 12:22:00,80.0,-99.9,30.14,ENE,75,6.0,15.0,-999,-99.99,,,-99.99,,2013-04-17 22:22:00,
2013-04-17 12:33:00,80.0,-99.9,30.14,NE,53,11.0,17.0,-999,-99.99,,,-99.99,,2013-04-17 22:33:00,
2013-04-17 12:43:00,80.0,-99.9,30.13,NE,52,6.0,12.0,-999,-99.99,,,-99.99,,2013-04-17 22:43:00,
2013-04-17 12:53:00,81.0,-99.9,30.13,ESE,114,8.0,15.0,-999,-99.99,,,-99.99,,2013-04-17 22:53:00,
2013-04-17 13:02:00,81.0,-99.9,30.13,ESE,103,9.0,15.0,-999,-99.99,,,-99.99,,2013-04-17 23:02:00,
2013-04-17 13:12:00,81.0,-99.9,30.12,ENE,76,6.0,11.0,-999,-99.99,,,-99.99,,2013-04-17 23:12:00,
2013-04-17 13:22:00,80.0,-99.9,30.12,ESE,104,10.0,15.0,-999,-99.99,,,-99.99,,2013-04-17 23:22:00,
2013-04-17 13:32:00,81.0,-99.9,30.12,ESE,109,8.0,21.0,-999,-99.99,,,-99.99,,2013-04-17 23:32:00,
2013-04-17 13:42:00,80.0,-99.9,30.12,ESE,108,9.0,17.0,-999,-99.99,,,-99.99,,2013-04-17 23:42:00,
2013-04-17 13:52:00,80.0,-99.9,30.11,East,95,6.0,12.0,-999,-99.99,,,-99.99,,2013-04-17 23:52:00,
2013-04-17 14:02:00,79.0,-99.9,30.11,East,99,10.0,15.0,-999,-99.99,,,-99.99,,2013-04-18 00:02:00,
2013-04-17 14:12:00,80.0,-99.9,30.11,ESE,110,7.0,13.0,-999,-99.99,,,-99.99,,2013-04-18 00:12:00,
2013-04-17 14:22:00,81.0,-99.9,30.10,ENE,73,7.0,12.0,-999,-99.99,,,-99.99,,2013-04-18 00:22:00,
2013-04-17 14:32:00,82.0,-99.9,30.10,East,100,4.0,14.0,-999,-99.99,,,-99.99,,2013-04-18 00:32:00,
2013-04-17 14:43:00,81.0,-99.9,30.09,East,100,9.0,15.0,-999,-99.99,,,-99.99,,2013-04-18 00:43:00,
2013-04-17 14:52:00,80.0,-99.9,30.09,ENE,67,7.0,13.0,-999,-99.99,,,-99.99,,2013-04-18 00:52:00,
2013-04-17 15:02:00,81.0,-99.9,30.09,NE,50,5.0,14.0,-999,-99.99,,,-99.99,,2013-04-18 01:02:00,
2013-04-17 15:12:00,81.0,-99.9,30.09,ENE,58,10.0,16.0,-999,-99.99,,,-99.99,,2013-04-18 01:12:00,
2013-04-17 15:22:00,82.0,-99.9,30.09,East,89,9.0,19.0,-999,-99.99,,,-99.99,,2013-04-18 01:22:00,
2013-04-17 15:32:00,82.0,-99.9,30.09,ENE,73,4.0,13.0,-999,-99.99,,,-99.99,,2013-04-18 01:32:00,
2013-04-17 15:42:00,80.0,-99.9,30.08,ENE,65,8.0,15.0,-999,-99.99,,,-99.99,,2013-04-18 01:42:00,
2013-04-17 15:52:00,81.0,-99.9,30.08,NE,55,9.0,15.0,-999,-99.99,,,-99.99,,2013-04-18 01:52:00,
2013-04-17 16:02:00,81.0,-99.9,30.09,ENE,76,8.0,17.0,-999,-99.99,,,-99.99,,2013-04-18 02:02:00,
2013-04-17 16:12:00,82.0,-99.9,30.09,ENE,77,5.0,13.0,-999,-99.99,,,-99.99,,2013-04-18 02:12:00,
2013-04-17 16:22:00,81.0,-99.9,30.09,ENE,67,6.0,19.0,-999,-99.99,,,-99.99,,2013-04-18 02:22:00,
2013-04-17 16:32:00,81.0,-99.9,30.09,East,85,7.0,13.0,-999,-99.99,,,-99.99,,2013-04-18 02:32:00,
2013-04-17 16:42:00,81.0,-99.9,30.09,East,85,7.0,13.0,-999,-99.99,,,-99.99,,2013-04-18 02:42:00,
2013-04-17 16:52:00,81.0,-99.9,30.09,East,85,7.0,13.0,-999,-99.99,,,-99.99,,2013-04-18 02:52:00,
2013-04-17 17:02:00,81.0,-99.9,30.09,East,86,8.0,11.0,-999,-99.99,,,-99.99,,2013-04-18 03:02:00,
2013-04-17 17:12:00,81.0,-99.9,30.09,East,88,6.0,11.0,-999,-99.99,,,-99.99,,2013-04-18 03:12:00,
2013-04-17 17:22:00,80.0,-99.9,30.09,NE,52,6.0,13.0,-999,-99.99,,,-99.99,,2013-04-18 03:22:00,
2013-04-17 17:33:00,79.0,-99.9,30.10,ENE,74,6.0,11.0,-999,-99.99,,,-99.99,,2013-04-18 03:33:00,
2013-04-17 17:43:00,80.0,-99.9,30.09,East,99,3.0,11.0,-999,-99.99,,,-99.99,,2013-04-18 03:43:00,
2013-04-17 17:53:00,79.0,-99.9,30.10,ENE,58,6.0,9.0,-999,-99.99,,,-99.99,,2013-04-18 03:53:00,
2013-04-17 18:03:00,79.0,-99.9,30.10,ENE,62,7.0,12.0,-999,-99.99,,,-99.99,,2013-04-18 04:03:00,
2013-04-17 18:13:00,79.0,-99.9,30.10,NE,55,5.0,10.0,-999,-99.99,,,-99.99,,2013-04-18 04:13:00,
2013-04-17 18:23:00,79.0,-99.9,30.11,NE,54,9.0,15.0,-999,-99.99,,,-99.99,,2013-04-18 04:23:00,
2013-04-17 18:33:00,80.0,-99.9,30.11,East,82,2.0,7.0,-999,-99.99,,,-99.99,,2013-04-18 04:33:00,
2013-04-17 18:43:00,79.0,-99.9,30.11,ESE,106,5.0,10.0,-999,-99.99,,,-99.99,,2013-04-18 04:43:00,
2013-04-17 18:53:00,77.0,-99.9,30.11,NNE,31,5.0,13.0,-999,-99.99,,,-99.99,,2013-04-18 04:53:00,
2013-04-17 19:02:00,78.0,-99.9,30.12,ESE,114,5.0,13.0,-999,-99.99,,,-99.99,,2013-04-18 05:02:00,
2013-04-17 19:12:00,77.0,-99.9,30.12,East,91,4.0,11.0,-999,-99.99,,,-99.99,,2013-04-18 05:12:00,
2013-04-17 19:22:00,77.0,-99.9,30.12,ENE,59,3.0,8.0,-999,-99.99,,,-99.99,,2013-04-18 05:22:00,
2013-04-17 19:33:00,77.0,-99.9,30.13,East,91,3.0,7.0,-999,-99.99,,,-99.99,,2013-04-18 05:33:00,
2013-04-17 19:42:00,77.0,-99.9,30.13,ENE,74,2.0,8.0,-999,-99.99,,,-99.99,,2013-04-18 05:42:00,
2013-04-17 19:52:00,76.0,-99.9,30.13,NE,56,4.0,6.0,-999,-99.99,,,-99.99,,2013-04-18 05:52:00,
2013-04-17 20:02:00,76.0,-99.9,30.13,ENE,61,3.0,6.0,-999,-99.99,,,-99.99,,2013-04-18 06:02:00,
2013-04-17 20:12:00,76.0,-99.9,30.14,NE,53,4.0,7.0,-999,-99.99,,,-99.99,,2013-04-18 06:12:00,
2013-04-17 20:22:00,76.0,-99.9,30.14,ENE,66,1.0,8.0,-999,-99.99,,,-99.99,,2013-04-18 06:22:00,
2013-04-17 20:32:00,76.0,-99.9,30.14,East,99,4.0,8.0,-999,-99.99,,,-99.99,,2013-04-18 06:32:00,
2013-04-17 20:42:00,76.0,-99.9,30.15,ENE,62,4.0,9.0,-999,-99.99,,,-99.99,,2013-04-18 06:42:00,
2013-04-17 20:52:00,76.0,-99.9,30.15,East,92,4.0,10.0,-999,-99.99,,,-99.99,,2013-04-18 06:52:00,
2013-04-17 21:02:00,76.0,-99.9,30.16,NE,55,2.0,5.0,-999,-99.99,,,-99.99,,2013-04-18 07:02:00,
2013-04-17 21:12:00,76.0,-99.9,30.16,NE,50,4.0,6.0,-999,-99.99,,,-99.99,,2013-04-18 07:12:00,
2013-04-17 21:22:00,76.0,-99.9,30.16,East,101,4.0,7.0,-999,-99.99,,,-99.99,,2013-04-18 07:22:00,
2013-04-17 21:32:00,76.0,-99.9,30.17,ENE,73,5.0,12.0,-999,-99.99,,,-99.99,,2013-04-18 07:32:00,
2013-04-17 21:42:00,76.0,-99.9,30.17,East,94,5.0,9.0,-999,-99.99,,,-99.99,,2013-04-18 07:42:00,
2013-04-17 21:53:00,76.0,-99.9,30.17,NE,54,4.0,8.0,-999,-99.99,,,-99.99,,2013-04-18 07:53:00,
2013-04-17 22:02:00,76.0,-99.9,30.18,ENE,71,5.0,12.0,-999,-99.99,,,-99.99,,2013-04-18 08:02:00,
2013-04-17 22:12:00,76.0,-99.9,30.18,East,81,3.0,8.0,-999,-99.99,,,-99.99,,2013-04-18 08:12:00,
2013-04-17 22:22:00,76.0,-99.9,30.18,ENE,58,6.0,13.0,-999,-99.99,,,-99.99,,2013-04-18 08:22:00,
2013-04-17 22:32:00,76.0,-99.9,30.18,NE,56,10.0,15.0,-999,-99.99,,,-99.99,,2013-04-18 08:32:00,
2013-04-17 22:42:00,76.0,-99.9,30.18,NNE,30,3.0,8.0,-999,-99.99,,,-99.99,,2013-04-18 08:42:00,
2013-04-17 22:52:00,76.0,-99.9,30.18,ENE,67,3.0,13.0,-999,-99.99,,,-99.99,,2013-04-18 08:52:00,
2013-04-17 23:02:00,76.0,-99.9,30.17,ENE,59,3.0,11.0,-999,-99.99,,,-99.99,,2013-04-18 09:02:00,
2013-04-17 23:12:00,75.0,-99.9,30.17,ENE,66,5.0,12.0,-999,-99.99,,,-99.99,,2013-04-18 09:12:00,
2013-04-17 23:22:00,76.0,-99.9,30.16,East,82,9.0,16.0,-999,-99.99,,,-99.99,,2013-04-18 09:22:00,
2013-04-17 23:33:00,75.0,-99.9,30.16,NE,55,6.0,11.0,-999,-99.99,,,-99.99,,2013-04-18 09:33:00,
2013-04-17 23:43:00,75.0,-99.9,30.16,East,100,3.0,9.0,-999,-99.99,,,-99.99,,2013-04-18 09:43:00,
2013-04-17 23:53:00,75.0,-99.9,30.16,ENE,78,6.0,10.0,-999,-99.99,,,-99.99,,2013-04-18 09:53:00,